Home > Weather > Chatham-Kent > Past weeks

Flag for Canada Past Weather in Chatham-Kent, Ontario, Canada — Yesterday and Last 2 Weeks

Now
81 °F

Partly sunny.


Feels Like: 80 °F
Forecast: N/A
Wind: 13 mph from South

Location: Windsor Weather Station

Current Time: Jun 30, 2016 at 7:04:19 PM

Latest Report: Jun 30, 2016 at 6:00 PM


Visibility: 15 mi

Pressure: 29.94 "Hg

Humidity: 30%

Dew Point: 46 °F

Location of Chatham-KentLocation

Past Weather in Chatham-Kent — Graph

°F

Chatham-Kent Temperature Yesterday

Maximum temperature yesterday: 79 °F (at 5:00 PM)
Minimum temperature yesterday: 52 °F (at 6:00 AM)
Average temperature yesterday: 67 °F

High & Low Weather Summary for the Past Weeks

 TemperatureHumidityPressure
High91 °F (Jun 20, 4:00 PM)100% (Jun 27, 4:00 AM)30.28 "Hg (Jun 27, 4:00 AM)
Low52 °F (Jun 29, 6:00 AM)24% (Jun 18, 4:00 PM)29.63 "Hg (Jun 16, 1:00 PM)
Average73 °F59%29.99 "Hg
* Reported Jun 15 6:00 PM — Jun 30 6:00 PM, Chatham-Kent, Weather by CustomWeather, © 2016

Note: Actual official high and low records may vary slightly from our data, if they occured in-between our weather recording intervals... More about our weather records

Advertising

Chatham-Kent Weather History for the Previous 24 Hours

Scroll right to see more
 ConditionsComfort  
Time TempWeatherWind HumidityBarometerVisibility
6:00 PM
Thu, Jun 30
81 °FPartly sunny.13 mph30%29.94 "Hg15 mi
5:03 PM82 °FScattered clouds.13 mph30%29.95 "Hg15 mi
5:00 PM81 °FScattered clouds.12 mph34%29.95 "Hg15 mi
4:00 PM81 °FScattered clouds.9 mph32%29.96 "Hg15 mi
3:00 PM81 °FPassing clouds.9 mph32%29.97 "Hg15 mi
2:00 PM81 °FPassing clouds.16 mph32%30.00 "Hg15 mi
1:00 PM79 °FPassing clouds.8 mph30%30.01 "Hg15 mi
12:00 PM77 °FPassing clouds.9 mph34%30.03 "Hg15 mi
11:00 AM77 °FPassing clouds.6 mph36%30.03 "Hg15 mi
10:00 AM75 °FScattered clouds.6 mph41%30.03 "Hg15 mi
9:00 AM70 °FPartly sunny.2 mph57%30.05 "Hg15 mi
8:00 AM63 °FPartly sunny.5 mph73%30.05 "Hg15 mi
7:01 AM59 °FPartly sunny.6 mph77%30.04 "Hg15 mi
6:00 AM55 °FPassing clouds.2 mph88%30.03 "Hg15 mi
5:00 AM59 °FPassing clouds.2 mph72%30.02 "Hg15 mi
4:00 AM59 °FPassing clouds.3 mph77%30.01 "Hg15 mi
3:00 AM59 °FPassing clouds.3 mph77%30.02 "Hg15 mi
2:00 AM59 °FPassing clouds.2 mph77%30.04 "Hg15 mi
1:00 AM63 °FPassing clouds.6 mph68%30.04 "Hg15 mi
12:00 AM63 °FPassing clouds.3 mph68%30.04 "Hg15 mi
11:00 PM
Wed, Jun 29
64 °FPassing clouds.3 mph64%30.03 "Hg15 mi
10:00 PM68 °FScattered clouds.7 mph56%30.02 "Hg15 mi
9:00 PM72 °FPassing clouds.7 mph47%30.01 "Hg15 mi
8:00 PM75 °FPassing clouds.9 mph39%30.01 "Hg15 mi
7:00 PM79 °FSunny.12 mph32%30.01 "Hg15 mi
Weather by CustomWeather, © 2016

See weather overviewHow to use our weather pages